STARLINK-34577, 64719

Orbit data source: Space-Track

STARLINK-34577, 64719 is a payload satellite owned by SpaceX/Seattle (US) in LEO that was launched on Sat, 28 Jun 2025 UTC via an FALCON 9 launch vehicle from the Air Force Western Test Range (AFWTR). Payload-class satellites include a variety of spacecraft equipped with specific instruments for various scientific and technological missions. These include communications satellites like Starlink; space stations such as the ISS; scientific satellites like the Hubble; Earth observation satellites from companies like Planet Labs, Umbra, and HawkEye 360; GPS; miniature CubeSats for education and research; and military/defense satellites.

Loading next visibility...
Identifier
64719, 2025-142Z
Orbit
LEO
Last TLE update
11 hours ago
Origin
Manufacturer
SpaceX/Seattle
Mission
Operational spacecraft
Bus & Motor
STARLINK V2MO, Unknown motor
Mass
575 kg wet, ~530 kg dry
Launch date (UTC)
2025-06-28 (3 weeks ago)
Launch vehicle
FALCON 9
Launch site
Air Force Western Test Range (AFWTR)
Object type
Payload
Rocket body
Debris
Shape & HBR
Unknown
Radar Cross Section
Large (>1 m²)

Expand to show TLE details & history

TLE from 11 hours ago
0 STARLINK-34577
1 64719U 25142Z   25199.25002315 -.01858211  00000-0 -31226-1 0  9998
2 64719  70.0004 195.5297 0003612 280.4825 132.1252 15.54939059  4122
Epoch: 2025-07-18T06:00Z
TLE epoch observation values (Epoch: 2025-07-18T06:00:02Z)
Latitude
48.43891°
Longitude
-166.69019°
Altitude
411.001 km
Speed
7.668 km/s
True Right ascension
14h 38m 29s
True Declination
48° 15' 34"
Sunlit
Object was in daylight at epoch
Visualization orbit readout
Latitude
-21.37085°
Longitude
-3.9506°
Altitude
415.02 km
Speed
7.661 km/s
Apparent Right ascension
22h 32m 09s
Apparent Declination
-44° 32' 42"
Sunlit
Object is in daylight
Visualization observer readout
Local Sidereal Time
06:14:08
Azimuth
242.06° WSW
Elevation
-43.266°
Doppler factor
1
Orbital elements
Apogee altitude
402.675 km
Perigee altitude
397.778 km
Semi-major axis
6,778.363 km
Eccentricity
0.00036
Inclination
70.0004°
RAAN
195.5297°
Arg. of periapsis
280.4825°
True anomaly
132.15589°
Mean anomaly
132.1252°
Eccentric anomaly
132.14055°
Mean motion
3.88916 °/min
Orbital period
92.56 mins
BSTAR
-0.031226
Loading maneuver chart data...
Loading SW <> Apogee altitude chart data...
Loading historical data...
Loading historical data...
Loading historical data...
Loading historical data...
Loading historical data...
Loading historical data...
Loading historical data...
|